Theta_e
316 316 316 317 317 316 316 316 317 316 314 314 313 313 312 312 310 310 310 310 309 309 308 307 307 307 306 307 306 306 306 305 304 304 304 304 304 303 302 302 303 300 302 302 302 300 300 299 299 300 299 298 298 300 301 299 299 300 300 298 298 298 298 296 294 295 296 297 298 299 300 299 298 297 297 297 297 299 302 300 301 301 301 301 302
315 316 316 316 316 315 316 316 316 315 314 313 313 313 312 312 311 310 310 310 310 311 309 308 307 306 305 306 305 305 306 306 305 305 305 304 303 305 304 303 302 301 300 301 301 302 299 300 300 301 299 299 298 300 299 298 298 298 298 298 297 298 297 296 295 294 293 295 296 297 296 297 295 296 296 295 296 298 298 298 299 300 300 299 299
315 315 315 315 314 314 314 313 313 313 312 311 311 311 312 312 312 312 311 310 310 311 310 309 308 307 306 306 306 306 306 306 305 305 305 305 305 304 304 304 303 302 301 300 300 300 299 300 299 300 300 298 298 298 299 298 299 298 297 297 297 296 296 296 294 292 292 292 294 294 293 294 293 294 295 296 296 296 296 296 297 299 299 298 298
314 315 314 314 313 314 314 314 313 313 313 312 311 311 312 313 313 313 312 311 310 311 310 309 309 308 307 306 306 306 306 306 306 306 306 305 305 305 304 304 304 303 303 301 300 301 300 298 299 300 299 299 298 298 298 298 298 297 296 296 296 295 295 294 294 292 292 290 290 293 293 291 292 293 295 295 295 295 296 296 296 296 297 298 298
314 315 314 313 313 312 312 313 313 312 312 313 313 314 313 312 313 313 312 311 311 311 311 310 309 309 309 308 308 307 307 307 307 306 306 305 305 305 305 304 304 304 304 303 304 302 301 300 300 300 299 299 298 298 298 297 297 295 295 295 295 295 295 294 292 291 289 288 289 291 291 291 292 292 294 293 294 294 294 295 295 295 296 296 298
313 314 313 312 311 310 311 312 313 312 313 314 314 314 313 313 313 313 314 314 314 314 313 313 314 313 312 311 309 308 308 307 307 306 306 306 305 304 305 305 304 304 304 304 303 302 302 301 300 301 300 299 299 298 298 297 296 295 294 294 294 293 292 292 291 290 289 288 289 289 288 290 290 291 292 293 292 292 293 294 294 294 295 295 296
312 312 312 311 311 310 310 311 313 313 313 313 314 314 314 312 313 314 313 314 314 314 314 314 314 314 314 313 312 311 310 309 308 307 307 306 306 305 305 305 305 304 304 304 303 303 302 302 301 301 301 300 299 299 298 296 296 294 295 293 292 291 291 290 290 289 289 288 288 288 289 290 290 290 291 292 292 292 291 292 292 294 294 294 295
311 311 310 310 310 310 311 311 313 314 314 314 313 314 314 313 312 312 313 312 313 314 314 314 315 314 314 313 313 312 312 310 309 308 308 308 306 305 305 304 305 304 304 304 303 303 302 302 302 302 302 301 300 299 298 295 293 293 293 292 291 290 289 290 289 289 289 288 288 287 287 287 288 289 291 291 290 291 292 291 290 291 292 294 293
310 310 309 309 310 310 311 311 312 313 314 314 314 314 314 314 314 313 313 313 314 315 314 313 311 311 311 311 312 312 312 312 312 311 310 309 307 306 306 306 306 305 304 304 303 302 302 302 302 302 304 306 303 302 300 298 294 292 292 291 290 290 289 290 290 288 288 288 288 288 287 287 287 288 288 288 288 289 290 291 290 291 292 292 293
309 309 309 309 309 310 309 310 311 312 312 313 314 314 314 313 314 314 313 314 314 313 313 311 311 310 310 311 311 311 310 311 311 308 308 310 309 309 308 307 306 305 305 305 304 304 303 303 304 307 306 306 302 298 296 296 298 295 293 293 293 289 289 288 288 288 289 288 287 287 288 287 287 287 288 288 289 289 289 290 289 290 290 291 291
306 307 309 308 306 307 307 307 308 310 311 312 312 313 313 312 313 312 312 312 312 311 311 310 310 308 309 310 311 312 312 312 306 302 300 302 309 308 308 308 308 307 306 305 305 305 304 302 300 305 305 304 300 296 294 294 294 294 295 295 295 292 289 288 287 287 290 289 287 287 287 286 287 287 287 289 289 289 288 289 289 289 288 288 287
302 302 303 303 305 306 305 306 307 309 309 309 309 310 308 309 310 311 311 310 308 308 309 310 310 310 308 309 309 310 310 307 302 301 299 298 301 308 308 308 307 306 306 305 305 305 303 301 300 303 301 299 297 295 295 294 293 293 292 293 293 294 294 292 291 288 287 287 287 287 286 286 286 286 287 288 289 289 288 288 287 287 287 286 286
295 297 297 299 302 303 303 305 307 307 308 308 307 307 308 308 309 309 309 310 308 308 309 309 308 306 307 308 309 308 307 299 295 298 299 297 297 300 306 307 306 306 306 305 304 303 301 301 300 300 301 303 300 295 295 294 293 292 293 293 293 292 290 290 291 291 288 287 287 286 286 286 286 287 290 289 288 288 288 287 287 286 287 286 287
295 297 297 297 298 299 300 302 303 303 303 303 305 305 306 308 308 308 308 305 307 308 307 308 307 307 308 307 306 298 296 295 293 294 296 296 295 296 302 303 303 304 303 304 303 300 300 300 300 299 299 300 297 296 296 295 295 294 293 292 293 293 292 292 290 290 292 290 287 287 287 289 288 288 290 290 288 288 287 286 287 286 286 287 288
296 297 297 298 297 297 298 297 297 297 297 299 299 299 300 298 299 300 303 304 305 305 305 305 306 306 305 302 298 293 293 293 291 294 295 295 295 295 300 299 298 297 298 299 299 299 299 301 299 298 299 299 299 297 296 296 296 295 294 293 292 291 291 290 290 290 290 288 287 287 287 288 288 288 288 288 288 288 288 287 287 287 288 288 287
296 295 296 296 296 297 297 296 296 295 296 295 296 295 294 296 296 297 296 295 296 297 298 299 299 298 297 294 294 294 291 292 292 293 293 292 295 298 296 296 295 295 295 296 297 297 298 299 300 300 300 299 294 294 296 297 295 293 290 288 288 288 289 292 292 292 291 288 288 288 288 288 291 289 289 289 288 287 289 288 286 286 285 284 284
294 295 298 297 297 296 296 297 296 295 295 296 294 294 295 295 295 294 294 294 296 297 297 297 297 297 295 293 292 291 290 292 292 292 293 294 295 296 295 295 295 295 294 294 295 296 296 296 297 295 293 293 292 291 292 293 292 290 288 286 286 286 286 288 291 290 290 290 290 290 290 290 290 290 290 290 290 288 286 284 284 283 282 282 284
297 296 296 297 298 297 297 297 298 298 296 296 294 293 293 293 293 296 295 295 296 295 295 293 296 295 296 294 292 290 289 292 293 292 293 294 296 295 294 294 293 293 292 291 291 292 297 301 296 292 292 291 290 290 291 293 291 290 289 288 287 286 286 286 288 288 290 290 290 289 289 289 290 290 290 290 290 291 285 284 285 283 283 283 282
298 297 298 296 295 296 298 299 298 299 299 297 295 293 294 295 293 292 293 294 294 292 293 294 293 292 292 291 299 289 288 292 292 292 292 293 295 294 295 294 293 290 290 289 288 289 290 294 295 293 292 291 289 290 290 291 290 289 289 288 288 287 287 286 285 285 285 285 285 287 287 289 289 287 289 290 290 291 288 287 285 283 283 283 284
300 298 297 297 296 297 297 299 299 298 299 298 296 296 295 293 293 292 291 293 293 291 292 292 291 289 289 288 289 288 288 288 290 292 293 293 294 295 294 293 291 289 289 290 288 287 288 289 290 289 289 289 289 289 289 290 290 290 289 288 287 287 287 286 289 286 283 284 283 283 285 285 285 285 285 286 288 290 289 287 286 286 284 284 284
299 298 298 297 297 298 297 299 299 298 297 297 296 297 296 295 293 292 292 292 291 291 291 290 289 288 287 287 286 287 289 288 289 291 292 292 292 292 290 291 289 290 289 288 287 287 287 287 288 290 288 289 289 288 289 289 289 289 287 287 288 289 287 284 285 290 284 284 284 284 285 284 284 284 284 284 286 287 288 288 288 287 286 285 284
296 297 296 297 298 297 296 296 297 297 296 296 296 297 296 295 295 294 292 291 291 289 288 289 288 287 286 286 286 285 291 292 288 290 291 291 291 291 290 289 290 290 288 287 286 287 286 286 287 288 288 288 288 288 288 289 290 290 286 288 287 287 286 287 284 284 283 283 282 283 283 282 282 284 285 286 287 288 287 287 287 287 287 287 286
294 296 296 295 295 295 296 296 297 298 296 295 294 294 293 294 294 292 291 290 291 290 288 288 287 286 285 284 284 284 285 289 291 289 290 290 290 290 290 290 290 291 289 288 287 287 288 288 289 289 288 288 288 288 288 288 289 287 288 287 287 287 288 286 285 283 282 282 284 283 282 283 283 283 284 285 285 286 286 286 287 287 288 289 289
291 292 294 295 295 294 296 296 296 296 295 295 294 293 292 292 292 292 290 291 291 289 287 287 287 286 285 284 284 284 284 285 290 290 290 289 290 289 289 289 290 290 290 288 287 288 288 289 290 288 288 288 288 288 287 288 286 288 288 288 288 288 286 284 283 283 283 282 282 282 282 283 283 283 284 285 285 285 286 287 287 287 287 288 288
292 292 292 292 292 293 294 295 296 294 294 294 293 292 292 291 292 289 291 290 290 290 287 289 288 287 285 286 284 284 285 285 286 289 289 289 289 289 289 289 289 290 289 289 288 288 289 289 288 288 288 288 288 288 288 288 287 287 287 288 289 283 284 282 283 283 281 282 282 282 282 283 284 284 285 285 285 286 285 286 286 287 287 287 288
292 292 292 292 292 291 292 292 291 291 292 294 295 294 295 292 292 289 290 289 288 288 287 286 285 286 285 284 284 284 284 284 285 287 290 290 289 289 289 289 290 290 289 288 288 288 288 288 288 288 288 288 288 287 285 285 287 287 287 287 283 282 282 282 281 283 281 281 282 282 283 283 283 284 284 284 283 284 284 285 285 285 285 286 286
294 293 293 294 294 293 293 293 292 290 290 289 290 291 291 291 292 290 289 290 288 287 287 287 286 286 286 285 285 285 284 285 285 285 285 287 286 288 288 288 289 289 288 288 288 288 288 288 287 287 287 287 287 286 286 286 284 284 282 282 282 282 282 282 282 282 283 281 282 282 283 283 284 283 283 283 283 284 284 285 284 285 285 285 285
295 295 294 293 293 293 293 290 291 290 287 288 291 290 290 291 292 292 292 291 290 287 288 288 288 289 287 285 284 284 284 285 286 286 286 287 286 285 286 285 285 285 286 286 287 288 286 287 286 285 285 284 283 282 282 282 283 283 282 281 281 282 285 287 287 282 282 282 282 283 284 285 284 284 285 285 285 285 285 285 285 285 286 286 285
292 293 293 293 293 293 293 292 291 291 288 285 283 287 288 289 292 290 289 290 295 293 291 290 290 290 289 286 285 284 284 284 285 286 287 288 287 285 284 284 285 285 288 288 287 285 285 284 283 283 282 281 280 280 280 280 279 280 281 282 282 282 282 281 282 282 282 282 283 284 284 285 284 285 285 285 285 286 286 285 286 286 286 286 284
289 290 291 292 292 292 292 291 291 290 290 288 287 287 285 287 286 288 288 292 293 293 292 292 292 290 288 287 287 287 286 285 287 287 288 288 288 287 287 287 287 287 287 287 287 285 285 284 283 282 281 279 278 277 277 276 278 279 279 283 281 281 281 281 281 281 282 282 284 284 284 284 284 284 285 284 285 286 286 286 286 286 285 285 284
289 289 289 289 290 291 291 291 291 289 289 289 289 287 286 286 287 287 288 290 291 292 292 291 290 290 290 287 285 288 288 287 288 288 288 288 287 287 287 287 287 287 287 286 283 283 284 282 279 278 277 278 277 277 277 277 278 279 280 280 281 281 281 281 281 281 281 283 284 285 285 284 284 284 284 284 285 285 285 286 286 285 285 285 284
289 290 289 288 289 288 289 289 289 289 288 287 288 288 287 287 285 287 287 288 289 290 290 289 290 289 289 289 286 284 287 288 288 288 287 287 287 287 287 287 287 287 287 287 284 282 282 280 277 276 276 277 277 277 277 277 278 280 280 280 281 281 281 281 282 282 282 283 284 284 285 284 285 285 285 285 285 284 285 285 285 285 285 285 284
288 288 289 289 288 288 287 288 289 289 288 288 287 287 288 288 289 285 286 288 288 287 288 289 289 289 288 288 288 287 287 287 288 287 287 287 287 287 287 287 287 287 287 286 284 281 279 278 276 276 276 276 277 277 278 279 280 280 280 279 280 282 282 283 282 282 282 283 284 285 285 285 285 285 285 285 284 284 284 284 285 285 284 284 284
287 287 286 287 287 287 287 288 289 289 290 290 290 289 290 291 290 289 288 285 288 287 287 288 288 288 288 288 288 288 288 287 287 287 287 287 287 287 286 286 287 286 287 284 282 278 277 277 278 279 279 278 278 277 278 279 279 280 280 281 281 282 282 283 282 283 283 284 284 285 285 285 285 284 284 284 285 284 284 284 284 284 284 284 284
287 286 286 286 286 287 285 285 286 288 287 289 289 289 289 288 288 289 289 289 288 285 282 283 285 287 286 287 287 288 287 287 287 287 287 287 287 287 287 286 285 284 282 282 281 280 278 277 277 279 279 278 279 279 279 280 280 280 281 281 282 282 283 283 283 283 284 284 285 285 285 285 285 285 284 284 284 284 284 284 284 284 284 284 284
287 287 287 287 287 285 284 285 285 286 286 288 289 289 288 287 287 287 285 286 285 283 280 281 281 286 287 287 287 287 287 287 287 287 287 287 287 287 285 283 282 281 280 281 280 280 280 279 279 279 279 281 281 279 280 281 281 281 281 281 282 282 283 283 283 284 284 284 284 285 285 285 285 285 285 284 284 284 284 284 284 284 284 284 284
287 286 286 286 286 286 286 286 286 287 287 286 286 285 285 285 285 285 284 284 284 283 283 282 283 284 285 285 287 287 287 287 287 287 286 286 286 286 285 284 283 282 280 280 278 278 280 279 278 279 280 281 280 280 280 280 280 281 282 282 281 282 282 283 284 284 284 284 284 285 285 285 285 285 284 284 284 284 284 284 284 284 284 284 284
288 287 287 286 285 287 286 286 287 286 286 285 285 284 284 284 284 284 284 283 283 283 282 282 284 283 283 283 287 286 286 286 287 286 286 286 285 284 283 283 282 281 279 279 279 279 278 278 278 280 280 282 281 281 280 281 281 281 281 281 282 282 284 284 284 284 284 284 284 285 285 285 285 285 285 284 284 284 284 284 284 284 284 284 284
288 287 286 286 286 288 287 286 285 285 285 285 285 285 284 284 283 283 283 283 283 283 283 283 283 283 284 285 285 286 286 285 285 284 284 282 282 283 282 281 280 280 280 280 278 278 278 278 278 278 280 281 280 279 279 280 280 281 281 280 281 281 281 282 283 283 284 284 284 285 285 285 285 285 285 284 284 284 284 284 284 284 284 284 284
289 288 287 286 287 287 286 285 285 285 285 285 285 284 284 284 284 284 283 283 283 283 283 283 283 284 285 286 285 285 285 285 284 284 284 283 281 280 281 280 280 280 280 278 277 278 278 277 277 277 278 278 279 279 279 279 279 280 280 279 280 280 281 282 282 283 283 284 284 284 284 284 285 285 285 285 285 285 284 284 284 285 284 284 284
290 290 287 286 287 286 286 285 285 285 284 285 285 285 285 284 284 284 283 283 283 283 284 284 285 285 286 286 286 286 286 285 284 284 284 282 281 280 279 280 279 279 277 277 277 277 277 276 276 275 274 275 276 277 278 279 279 279 279 280 280 281 281 282 282 283 283 284 284 284 284 284 285 284 284 285 285 285 285 285 285 285 285 285 285
291 290 289 287 287 286 285 285 285 285 285 285 285 284 284 284 284 284 284 284 284 285 285 285 286 286 286 287 286 286 285 285 284 284 283 282 281 281 281 281 281 280 276 276 278 276 275 275 275 274 275 275 276 276 277 278 278 279 279 279 280 280 280 281 282 283 283 283 283 283 284 284 284 285 285 285 285 285 285 285 285 285 285 285 285
291 290 289 289 288 287 285 285 285 285 284 284 283 284 284 283 284 284 284 285 285 286 286 285 285 285 285 285 285 285 284 284 284 283 281 281 281 280 280 278 276 277 277 278 277 275 275 274 274 274 275 276 275 276 277 278 278 278 278 278 279 279 279 280 281 282 282 282 283 283 283 284 284 285 285 285 285 285 285 285 285 285 285 285 285
290 289 289 289 288 287 286 286 286 286 285 285 285 285 285 285 285 286 286 286 286 286 286 285 285 285 284 284 284 284 284 283 282 282 282 281 280 279 277 275 277 276 275 274 274 272 272 274 274 273 273 274 276 277 276 277 277 276 277 277 278 278 278 279 280 280 281 281 282 282 283 284 284 285 285 285 285 285 285 285 285 285 285 285 285
290 290 289 289 288 288 287 286 286 286 286 286 286 286 286 287 286 286 286 286 285 285 285 285 285 285 284 284 284 284 283 282 282 281 280 280 280 278 276 275 274 273 273 275 274 274 273 274 274 274 275 276 277 278 277 277 276 276 276 276 276 276 277 278 279 281 281 281 281 282 283 283 284 285 285 285 285 285 285 285 285 285 285 285 285
289 288 288 288 288 288 287 287 286 287 287 286 286 286 286 286 286 286 285 285 285 285 285 285 284 284 284 284 283 283 282 281 280 280 280 279 278 276 274 273 272 273 273 275 274 276 276 275 274 275 275 275 276 277 277 276 277 276 277 275 276 276 278 279 280 280 280 281 281 282 283 283 284 285 285 285 285 285 285 285 285 285 285 285 285
289 288 288 288 288 287 287 287 287 287 286 286 286 286 286 285 285 285 285 285 284 284 284 284 284 284 284 284 283 282 281 281 280 279 279 279 278 276 274 273 273 272 273 274 274 275 275 276 275 275 275 276 275 276 276 276 276 276 276 276 277 277 278 279 279 279 280 281 282 282 283 284 284 285 285 285 285 285 285 285 285 285 285 285 285
289 289 289 288 288 287 287 287 287 286 286 286 285 285 285 285 285 285 285 285 284 284 284 284 283 283 283 282 281 281 280 280 280 279 279 278 277 275 274 273 273 272 273 273 274 275 275 275 274 274 275 275 275 276 275 276 277 277 277 277 277 278 278 278 278 279 280 281 281 282 283 284 285 285 285 285 285 285 285 285 285 285 285 285 285
287 287 287 287 287 287 287 287 286 286 285 285 285 285 284 284 284 283 283 283 283 283 283 282 282 282 281 281 281 281 281 280 280 279 279 278 277 276 275 275 276 273 273 273 273 274 274 274 275 275 273 272 273 274 275 277 277 278 277 277 277 277 277 278 278 279 279 280 281 282 283 285 285 285 285 285 285 285 285 285 285 285 285 285 285
285 285 285 285 285 285 285 285 285 285 284 284 284 283 283 283 282 282 282 282 282 281 281 281 281 281 281 281 281 281 280 280 279 278 278 277 276 276 275 275 274 273 271 272 272 273 273 273 274 274 275 275 276 276 277 277 277 278 277 278 277 277 277 277 278 279 279 279 280 282 283 284 284 285 285 285 285 285 285 285 285 285 285 285 285
284 284 284 283 283 283 283 283 283 283 283 283 283 282 282 281 281 281 281 281 280 280 281 281 281 280 280 280 280 280 280 280 279 279 278 277 277 277 277 276 276 274 273 273 273 274 273 273 274 275 276 278 278 278 278 278 278 278 278 278 277 277 277 277 277 278 279 279 280 282 283 284 284 284 285 285 285 285 285 285 285 285 285 285 285
Wind_Speed
5 4 4 4 7 6 5 6 8 8 7 6 6 6 5 7 6 5 3 4 4 4 4 4 4 4 4 4 5 5 6 5 4 5 5 5 4 5 4 4 4 3 3 2 2 4 4 4 2 1 1 4 3 3 4 4 5 6 5 5 6 3 3 3 2 1 2 1 1 3 4 4 5 6 7 7 8 7 7 6 6 7 7 7 7
10 10 10 9 9 6 6 6 7 8 8 7 7 6 5 6 7 4 5 5 5 6 6 5 4 4 4 4 4 4 4 5 5 5 6 6 5 4 6 5 5 4 4 4 2 2 4 4 2 1 0 4 3 4 3 4 5 6 5 5 5 5 2 4 2 1 1 3 5 3 6 4 4 5 7 7 7 5 7 7 5 6 7 7 7
8 10 9 10 7 3 4 4 4 5 7 6 5 4 4 4 4 7 6 5 5 5 6 5 5 4 4 4 4 5 5 6 5 6 6 6 7 5 5 6 6 6 5 5 4 3 3 4 4 3 3 4 3 3 3 4 4 6 4 4 5 3 3 3 4 3 2 2 1 3 5 5 4 6 6 5 4 4 5 7 6 5 5 6 6
8 9 9 7 5 6 6 5 5 4 5 4 2 1 1 2 3 3 6 5 7 5 4 4 4 4 4 4 4 4 4 4 5 6 7 7 7 7 6 6 6 6 6 6 4 4 4 4 4 4 4 4 4 4 3 4 5 5 5 4 5 4 3 3 3 3 1 3 2 2 3 4 3 3 5 4 5 5 4 4 4 4 5 6 5
6 7 8 8 6 5 4 4 4 3 4 5 6 5 3 1 0 0 1 1 3 5 5 5 4 3 4 4 5 5 4 3 2 2 2 2 3 4 5 5 5 5 6 6 6 6 5 5 5 4 4 4 3 4 4 5 4 5 5 3 4 3 3 3 3 3 3 3 2 1 2 1 1 2 5 8 7 4 3 5 5 5 5 4 4
6 7 6 7 5 6 5 4 5 5 6 6 6 6 5 3 2 2 1 6 5 4 2 3 5 7 8 9 5 4 3 3 4 4 3 3 3 3 3 4 4 4 5 5 5 6 6 6 5 5 5 5 4 4 4 5 4 5 5 3 4 3 4 3 3 4 4 1 0 3 2 4 2 1 3 5 6 7 8 6 3 4 7 8 6
6 7 6 6 6 5 5 5 6 6 6 6 5 6 6 4 1 1 5 3 1 4 7 6 7 10 12 7 5 6 5 3 4 4 4 4 4 4 4 4 4 4 4 5 5 5 5 5 5 6 6 6 5 6 5 4 4 4 5 5 4 4 4 3 3 4 3 2 1 0 2 1 2 5 3 3 3 2 7 9 10 6 5 7 9
5 6 6 6 6 6 6 6 6 6 6 7 6 4 5 6 5 2 1 2 1 3 5 8 8 5 5 3 3 7 7 4 4 4 4 4 3 4 4 4 4 4 3 3 4 5 6 5 6 7 7 6 6 5 6 6 4 4 3 3 3 3 3 3 3 4 3 2 1 1 1 2 3 1 3 4 4 1 4 4 9 10 10 6 5
4 4 5 6 7 7 7 5 5 6 7 7 8 7 5 6 5 4 5 6 6 9 8 5 2 0 0 0 1 4 8 8 5 4 4 4 4 4 4 4 4 4 4 4 4 3 4 5 5 6 6 8 10 9 8 8 6 5 3 3 3 3 3 3 3 3 2 2 2 1 2 4 3 5 6 5 6 6 5 3 3 5 7 8 6
3 3 4 5 6 5 4 5 5 6 6 8 10 9 8 9 9 8 8 8 7 6 6 4 4 5 4 3 2 3 7 7 5 6 7 6 5 6 5 5 4 5 6 6 5 4 5 6 5 8 9 10 10 10 11 10 9 7 7 5 4 4 3 2 2 1 1 2 2 2 5 5 5 3 3 2 3 3 5 5 6 6 6 7 4
3 3 4 4 4 4 3 3 4 6 6 4 6 8 8 7 7 7 6 6 6 3 1 3 3 1 3 3 4 7 8 7 6 6 7 9 6 5 5 6 6 6 6 7 8 8 7 6 4 5 7 7 7 11 11 10 10 10 10 8 7 6 4 3 3 3 2 1 1 1 1 4 5 3 3 4 3 3 4 4 6 6 6 8 13
2 2 2 1 2 2 2 3 3 3 4 4 5 4 3 4 5 6 6 4 1 1 5 5 4 4 4 3 5 8 7 5 4 5 7 8 8 6 5 5 5 5 5 6 6 6 6 4 3 3 4 5 6 7 7 9 9 9 9 8 7 8 8 5 4 2 2 2 2 3 2 3 3 3 3 4 5 5 3 3 3 4 7 7 5
3 1 1 3 5 4 3 4 5 5 6 5 3 3 4 4 5 5 6 5 5 7 6 5 7 5 3 4 7 8 6 3 3 4 6 8 9 8 5 5 5 5 5 5 4 4 3 4 3 3 3 7 6 5 5 4 4 5 5 4 3 6 8 9 7 2 3 2 3 3 2 1 1 1 1 2 2 4 5 6 5 4 5 6 7
2 1 1 1 1 3 5 5 5 6 5 4 4 4 4 5 5 5 4 3 5 6 6 6 4 5 7 8 7 3 2 3 5 5 5 6 6 5 3 3 3 3 4 4 4 4 5 6 5 4 3 4 4 5 4 4 4 3 4 4 4 5 6 7 5 5 3 1 1 1 0 1 1 2 3 1 2 4 5 7 4 7 7 8 7
1 1 1 0 0 1 3 3 4 3 4 4 5 5 5 4 4 4 5 7 7 8 8 8 8 8 8 6 5 4 2 3 4 4 3 3 1 2 1 1 2 1 1 2 3 4 5 6 6 6 5 4 3 4 4 4 4 4 5 5 5 4 4 4 4 4 3 3 3 1 2 2 3 3 3 3 3 4 4 6 6 6 7 6 6
1 2 2 1 1 0 3 4 4 4 5 5 5 4 3 3 3 1 3 3 3 3 2 2 4 4 3 4 4 2 0 2 1 3 5 6 6 4 3 3 3 3 3 3 3 3 4 5 6 5 4 4 4 5 5 5 5 5 5 4 4 4 3 2 4 5 4 3 2 1 1 2 3 3 3 4 3 3 3 3 3 4 4 5 7
4 2 1 2 1 1 1 4 4 4 4 5 5 4 4 2 2 3 4 3 3 2 1 0 0 2 3 2 3 1 0 3 0 6 8 9 6 5 4 5 4 5 5 4 4 4 3 3 5 6 6 5 5 9 10 9 7 6 5 4 2 2 2 1 3 5 4 3 0 2 4 5 5 6 7 7 4 3 1 3 6 3 5 7 6
7 3 2 3 3 3 3 3 4 5 4 5 4 3 1 1 2 1 3 4 4 2 1 3 3 2 0 1 1 3 1 2 1 5 8 8 8 6 5 6 5 6 6 5 5 5 7 11 8 7 7 5 8 11 10 9 7 5 4 3 3 3 3 2 2 2 3 3 1 2 5 5 6 7 7 8 9 6 2 6 5 3 6 5 7
7 5 4 3 2 4 4 5 4 4 5 5 4 4 3 3 2 3 5 5 3 2 3 5 5 5 4 3 4 2 1 3 3 3 7 9 7 5 6 6 6 4 5 6 5 6 6 7 11 9 8 8 11 10 10 8 6 4 4 4 2 3 1 1 2 3 4 4 4 4 5 7 5 5 6 10 10 8 3 5 5 4 7 6 7
7 4 3 2 1 0 3 4 5 4 5 4 3 3 1 2 2 4 4 6 6 5 4 5 5 4 3 4 4 2 3 2 2 4 5 7 8 6 6 7 6 5 4 5 6 5 5 6 7 10 11 10 9 9 7 7 6 4 3 4 3 2 0 2 1 1 2 2 4 3 4 5 5 4 5 5 6 4 5 5 5 5 6 7 7
3 4 4 2 1 1 1 3 5 4 3 4 3 0 1 1 3 4 4 5 5 5 5 4 5 4 4 3 3 2 1 3 2 6 7 7 8 8 4 6 6 6 5 5 5 6 5 5 4 6 9 9 8 8 8 8 6 4 3 3 1 1 2 0 2 2 1 2 3 3 5 4 4 4 5 5 6 6 6 5 6 5 6 7 7
3 4 4 4 4 4 3 3 4 5 4 3 3 2 0 1 0 1 4 5 5 4 4 4 4 3 4 4 3 3 2 2 3 5 8 8 8 9 7 4 6 8 6 6 5 5 5 4 4 4 7 8 8 7 7 6 5 3 2 2 1 1 0 0 1 1 1 2 3 4 4 5 6 6 5 5 6 6 6 6 6 6 6 6 7
2 3 4 5 3 3 3 4 4 3 4 4 4 3 2 2 2 3 4 4 5 5 4 4 4 3 4 4 3 2 2 2 3 4 7 10 10 10 10 7 6 5 8 6 5 6 3 3 3 4 5 6 6 6 6 6 4 2 2 2 2 1 0 0 0 1 2 3 3 5 5 6 6 6 6 6 6 6 6 6 7 7 7 7 7
4 2 4 6 7 5 4 4 4 5 6 6 5 6 4 3 4 5 6 6 6 5 4 3 4 4 4 2 2 2 2 3 4 5 6 10 10 11 10 9 9 6 7 7 5 5 5 3 3 3 5 7 7 7 7 6 4 6 5 4 2 2 1 1 2 3 3 4 5 6 6 6 6 6 6 6 6 6 7 6 7 7 7 8 8
5 5 4 4 5 6 5 6 7 5 4 4 4 3 2 5 5 4 5 6 6 6 6 5 5 5 5 5 3 1 2 3 4 5 9 10 12 12 12 13 12 13 9 4 4 3 5 6 7 7 7 9 9 8 7 7 7 6 6 6 5 3 3 3 3 3 5 5 6 6 6 6 7 7 7 7 6 6 6 7 6 7 7 8 8
4 4 5 4 4 4 5 5 4 4 4 6 6 6 4 2 3 3 6 5 5 5 6 5 5 4 5 5 5 4 5 6 5 3 4 7 8 11 12 12 12 12 10 7 9 10 10 10 11 10 9 7 6 5 4 3 6 7 7 6 4 3 3 4 3 4 5 5 5 6 7 7 7 7 7 6 6 7 7 7 7 7 7 8 8
3 3 4 4 3 2 4 4 4 2 2 1 2 5 7 7 7 5 5 5 4 5 6 6 5 6 6 6 6 7 7 2 2 1 2 4 6 6 9 9 11 11 8 6 7 7 8 8 7 8 8 9 8 6 5 4 5 6 5 3 3 3 3 3 3 4 4 5 5 6 6 7 6 6 7 7 7 7 6 7 7 8 7 7 8
6 6 6 5 4 3 3 4 4 3 3 3 5 5 4 5 7 7 7 7 7 6 7 7 7 7 6 6 6 5 5 5 6 8 6 6 5 5 5 6 6 6 7 6 6 6 6 6 7 5 5 6 6 5 5 5 3 4 4 3 4 3 3 4 4 3 4 4 6 5 6 6 7 7 7 7 7 7 6 7 7 8 7 8 8
6 6 6 5 6 5 4 3 3 3 2 2 2 1 2 4 6 5 3 4 8 9 9 8 8 7 8 9 8 6 6 7 6 5 7 8 9 8 6 6 6 5 8 11 8 6 6 6 5 5 5 5 5 4 5 5 4 3 3 4 4 4 5 5 5 6 6 5 6 7 7 7 7 7 7 8 7 8 6 7 7 8 8 7 9
6 7 6 6 6 5 5 5 3 3 4 4 4 3 4 4 1 3 3 2 3 4 9 8 9 8 7 6 5 8 11 8 10 12 10 8 8 9 9 8 8 8 8 9 8 7 6 5 4 4 4 5 4 3 3 2 3 5 4 4 4 5 5 5 5 5 5 5 6 6 7 7 8 8 8 9 9 8 8 8 9 8 8 8 9
8 7 6 6 7 6 6 5 4 4 5 5 5 6 5 5 9 9 3 1 6 6 6 4 10 11 10 7 1 6 8 14 15 13 12 11 12 12 12 13 14 14 12 9 6 5 5 5 4 3 3 3 3 2 1 2 3 5 5 5 5 4 5 5 5 5 5 5 6 6 7 7 8 8 8 9 9 9 8 7 8 8 8 9 9
9 8 8 7 7 6 6 5 4 5 4 5 6 6 6 6 4 9 11 8 5 6 8 10 12 10 9 11 9 4 10 14 15 14 14 14 13 12 12 12 11 10 9 12 7 5 5 6 4 3 3 3 1 1 1 2 3 4 4 5 6 5 5 6 5 5 5 6 7 7 8 8 8 9 9 9 9 9 9 9 7 8 8 8 9
8 8 8 8 7 7 6 6 6 6 6 6 4 5 6 6 7 4 7 10 12 11 7 6 9 10 11 10 12 12 12 13 16 15 14 14 14 13 12 12 11 11 10 7 6 5 5 5 4 2 3 3 1 0 2 3 3 4 4 4 6 6 6 6 5 5 5 6 7 7 8 9 9 9 9 9 9 9 9 9 8 8 8 9 9
7 7 7 7 7 6 6 6 6 7 7 8 7 7 7 8 8 8 7 5 6 9 11 10 8 10 9 12 13 14 16 16 16 16 16 14 14 13 12 8 8 6 9 7 6 6 4 4 3 3 2 1 1 1 2 3 3 4 5 5 5 6 6 6 5 6 6 7 7 8 9 9 9 9 9 9 9 9 9 9 8 8 8 8 9
7 8 10 7 6 6 6 5 5 6 6 6 7 7 7 6 6 8 9 9 8 7 3 4 5 5 7 8 12 16 16 16 17 17 16 15 13 14 12 9 7 5 5 4 6 6 5 4 3 2 2 1 1 1 2 3 3 4 5 6 6 6 6 6 7 7 7 8 8 9 9 9 10 9 9 9 9 9 9 9 8 8 9 9 8
8 8 7 8 7 5 4 4 5 6 6 6 7 8 7 7 7 7 5 6 8 8 4 4 3 6 9 9 13 14 15 14 15 14 13 14 13 10 7 6 6 5 5 4 5 4 4 4 4 2 1 1 1 2 2 4 4 5 5 5 6 6 7 8 8 8 8 8 8 10 10 9 9 9 8 9 9 9 9 9 9 9 8 8 8
8 8 7 7 6 5 5 5 5 5 5 5 4 4 5 5 5 6 6 7 7 6 8 7 7 7 7 5 8 11 12 13 12 12 11 9 7 5 5 6 6 6 6 4 4 4 3 3 3 2 1 1 1 2 2 4 4 5 5 5 5 6 7 7 8 8 8 8 8 9 9 9 9 9 8 9 9 8 8 8 8 9 9 9 10
8 8 7 6 5 6 5 6 6 6 5 5 4 5 4 5 6 6 7 7 8 9 8 6 7 10 10 7 4 6 9 10 12 9 8 8 6 5 5 6 6 7 6 4 4 4 4 3 3 3 1 0 1 2 3 5 4 5 5 6 6 6 10 9 10 8 8 7 8 8 9 9 9 8 8 8 9 9 9 8 8 9 9 9 7
8 10 11 11 9 7 6 6 5 5 5 5 5 6 6 6 6 6 7 7 7 7 7 8 8 8 8 8 7 7 10 6 6 6 5 5 4 5 5 5 5 5 5 5 4 3 4 3 3 1 1 0 1 2 2 4 4 5 5 5 7 6 8 7 8 8 7 7 8 8 8 9 8 8 8 8 9 9 9 9 9 8 9 8 7
9 7 9 12 7 7 5 6 6 6 6 6 6 6 6 6 7 8 8 8 9 8 7 8 8 8 8 9 8 7 7 7 6 6 6 5 5 5 5 6 6 6 6 4 3 4 4 3 2 1 1 1 2 3 3 4 5 5 5 5 6 7 8 7 7 8 8 8 8 8 9 9 9 8 8 8 8 8 9 9 9 8 8 8 9
8 7 7 8 8 6 6 6 6 6 5 6 7 8 8 7 7 8 7 7 7 7 7 7 6 6 7 10 12 8 7 7 6 6 6 6 5 6 5 5 6 5 4 4 4 3 3 3 2 2 2 2 2 2 4 5 5 5 5 6 6 7 7 7 7 7 7 8 8 9 9 9 9 8 9 9 9 9 8 8 8 8 8 8 8
7 7 7 6 8 6 6 5 5 7 7 6 7 7 5 7 8 8 9 9 9 8 8 8 7 5 7 12 9 7 6 5 5 5 5 5 5 5 5 5 5 5 5 5 5 3 2 1 2 2 2 2 2 3 4 5 5 5 6 6 7 7 7 8 7 7 8 8 9 9 9 9 10 10 10 9 9 8 8 8 8 8 7 7 7
7 7 6 7 7 7 7 6 7 7 6 6 6 6 7 0 5 9 9 8 8 8 8 8 6 5 5 6 8 8 5 5 5 5 5 5 5 5 5 5 4 3 3 3 2 2 2 2 2 2 2 2 2 2 3 4 5 5 6 6 7 7 7 8 8 8 7 8 9 10 11 10 9 9 9 8 8 8 8 8 8 7 7 7 7
7 7 7 7 6 6 6 7 7 7 6 7 7 7 8 8 5 8 9 9 8 7 6 7 6 6 5 4 5 5 5 5 5 5 5 5 5 5 5 4 5 4 2 1 0 1 1 0 1 2 2 2 2 2 3 3 3 4 5 6 6 7 7 7 8 8 8 9 9 8 8 10 10 9 9 9 8 9 9 8 8 7 7 7 7
8 8 8 7 7 7 7 7 8 8 8 8 7 7 7 8 8 8 8 7 6 5 5 6 6 6 6 5 5 5 5 5 6 5 5 5 6 5 4 5 5 4 3 2 1 2 1 0 0 1 3 3 3 4 3 3 3 3 4 5 5 7 7 8 8 8 9 8 8 9 9 8 9 9 9 9 8 8 8 8 8 8 8 7 7
8 8 8 8 8 8 8 7 7 8 8 8 8 7 7 7 7 7 6 6 6 6 5 5 5 5 5 5 5 6 6 6 5 5 6 5 5 4 4 5 3 2 2 1 1 1 1 1 1 1 2 3 4 4 4 4 4 3 3 3 5 6 6 7 7 8 8 8 8 9 10 10 9 9 10 9 8 8 8 8 7 7 7 7 7
9 9 9 9 9 8 8 8 7 7 8 7 7 7 7 7 6 6 6 6 6 6 6 5 5 5 5 5 6 6 6 6 6 6 5 5 4 4 4 3 3 2 2 1 1 1 1 1 1 1 2 2 3 4 5 5 4 4 4 4 4 6 5 7 8 7 7 8 7 8 9 9 9 8 9 9 8 8 8 7 7 7 7 6 6
9 9 9 9 9 9 8 8 9 8 8 7 7 7 7 7 6 6 6 6 6 6 6 5 5 6 6 6 6 6 6 6 6 6 5 5 4 4 4 3 3 2 1 2 2 2 2 2 1 2 3 2 4 4 5 5 4 5 5 5 5 7 10 11 8 7 6 7 7 8 8 8 8 8 8 9 8 8 7 7 7 6 6 6 5
9 9 8 8 8 8 7 8 8 7 8 7 8 8 7 7 7 6 6 6 6 6 6 6 6 6 7 6 6 6 6 6 6 5 5 5 4 3 3 2 2 2 2 3 3 3 3 3 3 3 3 4 4 5 5 5 6 6 6 6 9 16 17 16 10 7 9 8 6 7 7 7 8 8 9 8 8 8 7 7 6 6 6 6 5
9 9 9 9 9 9 8 8 8 8 8 8 8 8 7 7 7 7 7 7 7 7 6 7 7 6 6 6 6 6 6 6 5 5 4 3 3 2 2 2 3 3 4 3 3 3 3 3 4 3 4 4 5 4 4 5 6 6 6 9 14 16 16 17 16 15 11 7 7 6 6 7 8 7 7 8 8 8 8 7 7 6 5 6 5
9 9 9 9 8 8 8 8 8 7 7 7 8 7 8 7 7 7 7 7 7 7 7 7 6 6 6 6 6 6 6 5 5 4 3 3 3 3 3 4 5 4 3 4 4 4 4 4 5 5 5 5 5 5 6 6 6 7 11 14 14 16 17 15 12 14 16 11 6 6 6 7 8 8 8 8 8 8 8 8 7 6 6 5 5
Wind_Direction
96 73 96 129 198 207 197 172 192 171 175 198 208 210 196 179 179 187 161 194 172 187 209 219 220 214 195 186 170 168 165 169 171 152 149 149 156 150 148 145 141 160 137 125 104 123 124 130 141 124 132 92 92 76 68 82 81 77 87 89 72 48 81 105 95 301 310 319 347 347 341 1 17 15 8 357 356 355 9 16 12 22 18 11 5
145 154 164 176 193 202 190 183 210 181 173 187 203 210 209 197 182 158 187 201 180 196 204 212 210 207 202 204 200 183 175 171 172 163 158 160 168 161 161 160 150 158 145 163 156 125 134 138 171 191 103 103 87 74 88 77 81 76 58 81 75 54 33 91 97 138 305 315 359 350 2 5 17 11 11 357 351 351 9 7 13 20 13 4 4
149 156 162 180 185 131 145 154 187 186 169 182 203 212 225 233 187 179 193 195 200 201 207 203 205 206 216 218 203 198 189 182 182 175 174 172 173 181 175 167 162 159 168 186 184 153 135 146 171 170 145 98 93 112 107 95 88 91 84 81 86 70 47 70 77 40 44 322 315 5 6 343 17 358 359 351 341 346 8 9 2 9 13 6 358
148 154 160 158 159 156 152 155 157 168 145 124 103 64 27 337 308 242 195 186 197 210 206 207 204 206 215 227 233 229 219 205 194 192 182 178 177 181 182 181 177 175 179 185 175 169 172 161 185 173 161 130 138 119 106 109 105 108 99 88 99 93 80 75 78 104 97 26 315 49 351 358 335 344 351 348 2 357 8 346 353 14 5 4 358
125 135 141 149 159 146 130 133 139 142 127 113 108 99 73 48 80 47 33 42 19 12 353 346 322 298 261 233 220 221 228 236 233 247 257 227 199 184 185 187 188 187 187 183 179 178 177 185 188 177 164 146 144 132 136 117 130 119 119 122 116 123 86 87 87 84 81 34 323 288 345 303 297 321 1 358 350 357 358 2 349 354 353 351 345
122 132 142 144 134 118 127 128 137 150 158 150 129 103 91 72 4 329 166 137 122 115 88 49 7 336 313 287 283 272 243 207 207 213 223 215 194 188 198 205 204 197 194 192 187 185 184 194 183 177 173 171 184 169 149 138 135 126 127 138 136 124 117 106 103 89 87 73 23 345 339 359 341 326 3 2 349 344 349 351 344 356 356 350 354
134 135 147 142 130 121 126 138 148 154 144 134 133 139 127 111 82 333 333 336 133 164 180 184 201 218 236 247 276 272 253 222 222 222 215 210 208 200 200 208 213 213 210 200 199 194 195 192 186 183 187 187 169 173 159 146 138 138 148 149 151 124 117 128 116 98 97 68 3 57 311 298 9 342 344 350 320 352 357 343 346 354 358 354 336
138 139 141 131 131 139 150 162 149 129 122 120 110 107 110 109 128 138 148 170 231 252 235 217 217 212 262 292 306 289 269 238 227 224 226 224 212 217 215 212 218 225 246 240 209 208 204 199 196 196 192 187 177 174 156 154 140 133 169 138 138 106 113 120 88 95 89 86 91 301 295 288 332 285 300 338 1 20 41 6 334 335 338 342 328
132 137 135 139 150 159 163 132 106 127 137 133 125 124 128 132 144 154 177 189 197 215 223 219 188 133 61 71 275 266 263 255 227 216 218 227 214 224 223 214 211 226 230 238 241 236 230 216 212 205 198 189 185 171 171 155 146 148 195 154 137 111 103 75 97 87 65 63 356 274 338 347 331 349 349 9 9 327 323 3 308 311 318 323 323
151 152 145 149 159 171 142 118 136 129 139 154 149 158 169 173 174 186 194 200 201 197 200 182 172 180 190 196 191 252 261 264 245 219 210 212 217 221 218 216 205 201 214 222 228 219 229 233 231 210 198 188 181 168 159 162 164 161 169 166 142 129 126 118 113 125 100 14 314 349 350 332 326 336 325 300 302 314 333 338 329 318 319 307 284
145 178 177 164 170 179 137 128 139 159 175 182 175 169 183 189 185 188 195 198 200 192 197 215 237 135 183 209 231 241 242 244 256 252 242 230 225 228 224 227 216 215 214 210 218 223 222 215 219 207 198 180 164 160 160 161 160 158 162 166 163 153 149 139 182 172 169 214 221 34 295 297 302 309 307 304 333 335 321 325 316 329 347 346 329
132 202 220 128 166 199 155 127 142 173 198 198 199 187 154 170 178 191 199 210 102 284 249 231 232 217 193 203 229 242 246 249 260 254 241 239 235 233 234 234 230 224 222 220 225 221 217 200 190 178 180 166 151 152 154 160 158 159 162 166 171 169 159 156 164 171 193 204 263 251 213 257 272 331 325 359 329 329 316 323 316 330 323 318 292
119 126 180 156 161 187 183 174 180 189 202 211 196 175 182 175 187 190 203 193 167 210 231 223 223 209 197 214 229 233 240 275 304 266 244 234 229 221 233 224 220 227 223 225 229 213 180 170 163 159 150 148 138 144 154 157 122 106 117 118 69 46 38 40 47 104 163 160 203 255 210 217 328 284 5 313 313 320 324 326 319 301 285 285 285
90 76 10 353 322 144 155 165 177 185 178 177 173 175 175 193 190 194 188 165 178 204 208 212 210 198 205 212 218 227 231 317 297 289 276 252 243 211 239 240 232 228 219 212 200 173 164 162 156 147 141 145 145 158 162 137 129 102 73 55 60 50 59 57 65 75 88 123 144 224 216 144 227 233 269 233 316 304 307 297 299 301 296 286 293
112 122 155 281 322 160 136 148 154 156 152 152 155 165 173 171 177 186 185 190 195 197 200 198 198 198 199 184 165 169 211 298 294 273 267 275 243 186 167 104 88 71 73 147 152 149 154 159 162 155 147 155 157 163 143 142 127 102 83 66 62 74 71 66 72 86 93 102 130 173 226 214 211 241 257 250 241 251 258 268 282 281 282 295 289
15 353 333 329 327 189 158 157 160 143 144 138 132 128 120 137 130 134 111 113 139 146 123 160 179 188 154 135 125 122 277 348 206 167 126 122 121 94 86 84 86 75 63 66 83 111 139 144 140 128 119 98 53 104 106 106 97 93 89 82 79 74 74 88 89 96 111 132 150 175 222 231 251 255 265 267 265 262 275 292 300 279 299 309 303
1 329 258 249 259 278 232 173 162 162 154 136 136 146 143 132 138 158 96 75 72 50 44 76 302 143 134 130 129 132 343 347 97 126 125 123 101 95 94 91 90 84 61 48 46 43 37 82 94 96 85 80 91 95 101 104 96 99 95 84 74 84 39 340 88 88 83 100 103 263 273 276 277 273 270 270 268 266 234 332 300 296 330 309 298
337 335 331 260 210 203 181 215 185 174 165 160 174 179 161 159 168 159 107 102 88 126 126 53 41 36 68 190 137 148 182 345 132 148 145 147 134 126 121 108 97 91 75 46 41 43 42 68 86 93 93 88 90 91 95 94 96 103 106 95 54 30 0 353 12 13 25 351 356 325 299 303 317 321 318 320 318 321 326 290 275 326 292 278 290
316 315 338 324 276 200 190 180 223 189 174 185 178 169 183 169 153 117 116 108 97 109 102 99 68 41 35 51 38 68 81 33 61 161 143 132 118 119 119 112 101 79 85 68 46 54 54 57 81 92 95 98 91 92 94 100 108 117 121 105 83 50 324 344 24 359 349 354 340 354 337 337 338 332 318 314 305 301 270 254 272 269 276 279 281
260 263 252 262 324 274 184 185 182 201 193 188 192 204 156 117 126 104 78 89 92 72 77 78 81 59 49 58 59 71 95 53 50 105 117 112 120 119 121 121 120 112 96 101 85 54 64 72 75 91 96 94 91 91 94 103 111 117 105 99 109 59 263 24 353 15 318 329 304 310 294 295 303 305 307 305 305 297 291 279 266 254 263 275 275
245 247 264 262 96 16 166 187 179 202 211 175 166 146 198 187 136 133 113 89 82 68 67 75 78 57 50 59 77 57 110 115 90 110 113 111 116 114 106 117 126 119 114 96 104 108 92 86 86 101 103 103 101 94 89 83 91 106 103 115 141 133 127 20 310 342 305 292 292 294 287 291 290 290 288 291 286 288 287 283 274 256 254 269 275
279 298 281 243 173 177 201 181 179 172 171 136 146 236 257 115 94 132 120 113 99 90 87 82 84 63 44 46 54 45 34 73 110 99 110 111 111 118 115 129 142 124 105 105 108 106 122 122 110 106 108 110 106 101 94 89 78 80 83 91 98 85 231 219 237 287 263 265 271 284 292 297 298 295 289 283 280 279 275 274 273 269 256 240 251
237 231 268 271 255 205 214 180 174 148 153 162 146 198 223 166 148 123 114 104 110 116 116 114 103 80 52 34 28 31 22 35 85 100 107 107 101 98 111 118 114 112 123 125 126 124 114 104 98 88 82 86 86 89 85 78 69 51 41 8 357 342 212 179 199 326 322 316 314 309 302 298 300 294 290 284 274 270 271 268 266 266 265 262 255
275 228 228 234 248 246 226 215 196 179 170 168 170 153 166 167 146 145 137 133 126 122 133 127 126 136 132 90 54 41 25 44 50 83 97 93 93 99 100 102 102 100 107 121 127 124 115 109 113 103 58 51 55 58 56 52 48 38 30 25 42 59 46 14 355 347 331 326 325 313 304 292 286 287 280 275 278 277 278 276 274 269 269 270 267
287 269 240 222 238 244 220 207 200 191 187 159 150 165 167 158 147 151 132 131 138 147 168 160 156 157 156 153 145 73 40 45 62 75 93 94 97 99 99 99 103 103 98 106 107 110 111 101 86 78 74 75 74 74 68 63 63 63 56 46 40 30 21 5 344 345 336 317 303 294 290 285 278 278 281 283 286 289 285 282 278 276 273 271 271
290 279 280 271 228 222 244 248 248 241 211 191 189 182 173 201 195 161 135 138 144 140 148 138 137 143 133 98 82 50 20 11 23 35 74 92 93 99 100 98 93 92 98 99 98 89 84 82 83 82 79 80 78 70 68 53 52 48 39 35 29 19 2 356 335 333 311 301 297 296 290 290 291 287 288 292 293 287 288 291 295 293 290 290 291
253 272 276 275 282 224 210 226 239 201 151 150 150 168 163 168 164 164 155 146 136 136 145 149 150 155 151 145 137 142 136 163 114 42 22 82 100 100 94 89 93 91 88 91 88 89 84 84 93 95 94 84 82 78 65 37 36 22 14 10 3 345 329 317 302 292 294 290 286 285 287 287 287 297 298 296 292 288 281 284 286 285 288 284 283
236 249 255 257 264 254 246 233 228 198 164 173 165 174 181 169 161 167 168 169 154 160 158 167 174 174 157 149 149 126 136 163 179 163 163 144 126 115 107 114 117 124 114 110 108 102 100 91 76 59 61 53 46 38 32 34 38 15 355 345 337 326 315 300 296 290 279 275 279 281 291 300 303 300 297 292 286 286 280 277 282 286 285 289 284
246 238 235 234 246 247 245 256 240 221 141 63 46 81 170 199 195 206 223 178 174 167 179 186 184 182 157 158 151 159 169 192 204 168 161 161 148 135 131 131 132 115 129 127 107 87 82 74 68 58 50 59 44 36 19 16 4 354 347 336 331 329 330 341 329 313 307 312 311 312 309 308 303 301 298 295 291 291 285 280 276 281 284 276 276
253 246 238 228 233 235 236 239 216 182 166 152 134 87 53 80 62 194 221 204 191 187 163 177 184 164 164 179 164 163 193 192 155 156 162 157 137 125 127 128 126 127 125 114 104 94 86 90 78 83 71 65 55 37 11 0 356 349 337 328 331 327 322 318 311 303 305 301 298 304 305 306 302 304 301 296 294 289 286 284 286 284 283 280 279
247 242 240 238 233 224 223 230 217 182 170 160 152 138 118 48 44 44 31 276 174 157 171 156 156 166 156 160 104 74 109 132 146 146 142 134 128 126 125 124 123 128 130 103 64 92 106 99 100 88 100 92 74 49 7 9 351 344 337 329 312 315 314 311 301 298 299 302 305 303 302 302 300 299 296 295 293 292 289 282 278 276 272 274 276
251 241 231 230 229 227 223 212 179 172 177 170 164 160 148 116 53 32 38 46 70 136 153 154 164 160 150 137 127 72 125 135 135 138 134 129 125 123 122 123 125 121 119 106 100 102 114 118 110 102 96 80 40 326 358 358 345 337 324 332 325 314 314 313 307 310 307 308 309 309 306 304 299 297 293 291 290 289 288 287 281 277 273 269 268
246 248 237 228 224 219 216 201 187 177 172 173 178 169 156 156 136 97 32 46 58 56 66 132 147 144 132 137 141 145 151 143 135 131 132 130 125 120 117 116 121 122 98 85 116 120 121 117 125 135 119 113 158 38 341 348 334 324 320 312 314 312 310 300 304 304 299 302 306 305 304 301 298 294 290 287 288 287 287 283 281 276 274 275 273
232 230 228 219 212 214 211 198 187 188 185 182 182 180 186 177 170 157 135 109 57 45 44 59 101 116 124 136 136 135 137 138 137 136 135 133 127 120 109 101 95 98 116 131 119 134 131 122 122 134 147 149 134 31 358 334 325 318 312 305 297 300 300 300 310 310 312 311 309 303 301 297 293 292 289 288 283 282 283 280 280 280 278 273 276
227 230 233 219 197 203 197 185 187 184 178 179 176 181 185 189 164 160 162 162 151 132 116 54 55 98 130 133 139 139 141 142 142 141 138 136 129 123 111 100 99 80 69 87 117 132 137 141 150 166 148 93 344 70 340 321 320 320 316 314 312 309 312 321 319 317 314 311 306 301 297 294 291 287 286 288 289 287 285 284 282 278 279 280 277
223 217 220 227 222 211 192 182 180 178 187 196 191 186 174 162 168 174 151 129 130 127 94 75 79 66 98 124 136 136 135 137 138 137 139 135 141 128 102 110 112 123 123 132 130 144 137 152 153 174 172 164 319 1 325 320 309 310 308 312 312 318 323 321 317 312 306 301 296 294 294 291 288 288 288 284 282 282 283 283 282 281 275 275 276
214 205 204 208 208 205 195 185 178 189 192 188 174 161 160 158 147 139 138 139 131 122 125 125 104 82 68 77 114 123 127 132 130 128 126 134 135 107 127 137 137 135 139 152 148 139 139 184 182 171 188 112 340 298 314 316 311 313 308 305 309 317 313 307 303 300 300 298 296 294 293 292 293 292 291 289 288 285 284 283 282 280 278 275 275
214 207 200 189 191 196 187 185 191 183 169 155 157 157 156 154 155 151 143 143 141 137 138 142 139 139 139 139 149 130 124 116 104 90 93 92 91 107 120 129 134 141 154 163 161 155 168 186 180 175 205 190 302 314 318 309 313 307 307 315 318 309 307 304 301 297 295 294 295 295 296 295 294 295 293 290 291 293 290 287 287 286 284 276 270
213 207 198 190 187 185 183 174 167 155 155 154 157 153 156 148 136 134 134 130 133 134 138 143 146 146 143 142 138 144 127 133 135 137 121 104 101 116 124 126 128 134 146 158 158 158 165 176 207 209 230 213 297 297 298 301 302 307 314 319 313 308 308 303 302 301 301 298 300 299 299 297 297 297 295 293 290 290 290 290 287 284 285 286 279
197 196 196 191 192 183 166 165 159 161 163 157 161 158 152 159 158 150 143 143 143 143 143 146 151 149 144 142 142 149 144 146 146 146 139 130 127 130 134 137 145 150 157 162 165 172 165 191 197 214 243 275 287 298 301 295 304 308 314 309 307 307 304 302 300 302 301 303 302 302 301 300 300 299 296 292 291 292 292 291 290 286 284 282 282
175 177 178 188 181 167 154 148 152 156 155 157 160 164 170 162 150 139 134 128 128 134 143 143 132 136 148 146 154 165 151 151 149 149 148 144 148 147 153 152 150 154 158 159 168 176 173 180 225 241 265 283 283 290 297 312 318 320 314 312 311 304 303 301 299 298 302 303 302 303 302 302 302 302 299 297 294 293 290 289 288 287 283 281 279
155 156 162 165 164 149 147 142 142 137 146 147 143 148 156 160 146 145 140 141 140 141 135 129 130 144 137 140 152 149 130 126 129 129 135 146 152 153 150 152 157 154 154 163 165 170 179 204 240 248 265 284 307 315 325 332 327 321 320 318 313 308 307 306 306 306 306 305 304 302 304 304 301 300 297 299 300 298 296 294 293 291 288 285 284
131 134 131 139 141 146 140 137 130 130 132 131 134 127 104 0 145 132 131 131 134 133 127 125 123 117 117 123 125 122 113 121 123 130 132 135 134 136 140 145 148 145 157 159 162 155 149 180 229 256 267 291 296 303 323 313 323 323 318 311 307 304 304 306 311 311 311 307 305 304 305 303 302 303 303 302 300 300 297 298 299 297 295 292 294
101 103 109 110 107 107 113 121 121 120 122 117 116 112 124 131 123 115 121 123 125 125 131 133 130 129 125 111 105 104 108 108 110 116 120 116 115 116 117 116 111 100 87 81 147 138 136 227 284 288 275 285 309 331 324 312 319 318 311 307 306 305 305 307 308 309 309 306 301 297 299 303 303 303 304 303 304 301 302 302 302 303 303 303 301
84 91 94 96 96 102 97 101 108 112 112 110 106 107 113 115 117 113 114 118 116 118 118 125 129 125 121 114 108 108 112 111 114 110 106 111 109 109 109 101 98 99 88 67 51 71 95 160 186 10 356 334 341 343 330 326 328 309 298 301 301 305 304 303 301 302 302 296 293 298 298 301 304 305 305 305 302 301 300 303 305 307 309 308 310
73 78 85 91 92 95 95 95 97 102 108 106 111 109 104 100 102 104 105 106 108 116 118 116 109 110 112 109 105 105 111 109 105 102 101 97 101 103 101 104 97 96 91 60 28 64 154 120 67 32 353 337 342 332 330 332 327 318 304 292 287 282 286 291 298 301 299 297 295 297 300 301 304 304 305 305 303 302 301 304 306 309 310 310 307
63 70 71 78 79 83 83 89 90 92 93 92 95 96 99 96 95 95 93 100 106 107 104 106 105 106 105 108 112 110 109 106 106 100 99 99 98 104 98 96 90 73 40 31 23 82 77 57 24 2 6 359 344 334 335 334 327 320 316 311 299 300 300 306 304 295 293 295 296 293 299 302 305 309 309 310 309 308 308 308 315 315 315 311 310
67 68 70 76 81 80 82 85 87 84 82 82 82 82 86 89 91 94 100 100 98 100 99 96 92 93 94 89 90 98 99 97 94 92 92 90 90 89 87 82 77 59 36 32 19 35 42 26 1 15 19 17 5 349 344 334 333 329 327 324 316 317 315 315 305 303 298 303 298 297 298 305 310 311 313 312 311 312 313 319 321 323 321 318 320
55 58 63 62 65 65 69 69 71 73 80 83 82 80 80 83 83 85 85 88 89 87 90 93 90 88 88 90 93 93 94 92 93 91 88 86 81 73 73 73 67 55 50 30 13 24 22 13 17 21 34 31 15 357 346 342 337 334 333 330 328 328 327 329 327 316 318 313 308 305 303 305 312 315 317 317 316 315 313 314 321 324 321 325 325
54 55 61 60 62 62 64 66 67 72 71 76 81 83 78 80 79 80 84 85 85 82 80 80 84 85 95 96 96 95 95 97 98 97 92 82 73 72 67 62 58 46 38 22 11 19 19 27 28 27 32 27 8 359 348 343 340 335 331 327 327 331 332 332 329 333 337 326 315 304 308 310 314 316 321 322 321 320 323 327 330 332 330 331 335
59 61 60 61 64 67 70 74 73 73 75 80 79 84 83 81 81 78 79 79 82 81 80 79 83 81 80 82 88 93 93 94 91 92 89 81 68 62 50 42 33 28 28 30 32 33 34 34 30 31 29 14 5 1 356 347 340 333 326 324 328 335 336 337 333 328 331 336 320 316 320 321 322 324 328 331 331 328 329 327 333 340 343 341 339